Flippin, AR

8:47 PM CST on January 19, 2017 (GMT -0600)
Marion County Regional

Weather History for KFLP - January, 2005

Change the Weather History Date:

Tuesday, January 4, 2005

  Actual Average Record
Temperature  
Mean Temperature 52 °F -  
Max Temperature 55 °F 45 °F 73 °F (1997)
Min Temperature 48 °F 26 °F 5 °F (1999)
Degree Days  
Heating Degree Days 14    
Growing Degree Days 2 (Base 50)    
Moisture  
Dew Point 48 °F    
Average Humidity 89    
Maximum Humidity 94    
Minimum Humidity 82    
Precipitation  
Precipitation 0.53 in - - ()
Sea Level Pressure  
Sea Level Pressure 30.17 in    
Wind  
Wind Speed 4 mph (NNE)    
Max Wind Speed 8 mph    
Max Gust Speed -    
Visibility 4 miles    
Events Thunderstorm    
Averages and records for this station are not official NWS values.
T = Trace of Precipitation, MM = Missing Value Source: NWS Daily Summary

Daily Weather History Graph

Daily Weather History Graph

Search for Another Location

Airport or City:

Trip Planner

Search our weather history database for the weather conditions in past years. The results will help you decide how hot, cold, wet, or windy it might be!

Date:

Astronomy

Jan. 04, 2005 Rise Set
Actual Time 7:22 AM CST 5:09 PM CST
Civil Twilight 6:53 AM CST 5:37 PM CST
Nautical Twilight 6:21 AM CST 6:09 PM CST
Astronomical Twilight 5:50 AM CST 6:40 PM CST
Moon 12:53 AM CST (1/4) 12:20 PM CST (1/4)
Length of Visible Light 10h 43m
Length of Day
9h 46m
Last Quarter, 39% of the Moon is Illuminated
Jan 4
Last Quarter
Jan 10
New
Jan 17
First Quarter
Jan 25
Full
Feb 2
Last Quarter

Hourly Weather History & Observations

Time (CST) Temp. Dew Point Humidity Pressure Visibility Wind Dir Wind Speed Gust Speed Precip Events Conditions
12:15 AM 53.6 °F 48.2 °F 82% 30.24 in 10.0 mi NW 5.8 mph - N/A   Overcast
12:35 AM 51.8 °F 48.2 °F 88% 30.23 in 10.0 mi NNW 5.8 mph - N/A   Overcast
12:55 AM 51.8 °F 48.2 °F 88% 30.23 in 10.0 mi NNW 4.6 mph - N/A   Overcast
1:15 AM 51.8 °F 48.2 °F 88% 30.22 in 10.0 mi NNW 4.6 mph - N/A   Overcast
1:35 AM 51.8 °F 46.4 °F 82% 30.22 in 7.0 mi NW 3.5 mph - N/A   Overcast
1:55 AM 51.8 °F 48.2 °F 88% 30.21 in 5.0 mi North 5.8 mph - N/A   Overcast
2:15 AM 51.8 °F 46.4 °F 82% 30.21 in 5.0 mi NW 4.6 mph - N/A   Overcast
2:35 AM 50.0 °F 46.4 °F 87% 30.21 in 6.0 mi Calm Calm - N/A   Overcast
2:55 AM 50.0 °F 46.4 °F 87% 30.21 in 4.0 mi NW 3.5 mph - N/A   Overcast
3:15 AM 50.0 °F 46.4 °F 87% 30.21 in 2.5 mi Calm Calm - N/A   Overcast
3:35 AM 50.0 °F 46.4 °F 87% 30.21 in 1.5 mi Calm Calm - N/A   Overcast
3:55 AM 50.0 °F 48.2 °F 94% 30.20 in 1.5 mi NNW 3.5 mph - N/A   Overcast
4:15 AM 50.0 °F 46.4 °F 87% 30.20 in 2.0 mi NW 4.6 mph - N/A   Overcast
4:35 AM 50.0 °F 46.4 °F 87% 30.20 in 4.0 mi NNW 4.6 mph - N/A   Overcast
4:55 AM 50.0 °F 46.4 °F 87% 30.19 in 3.0 mi North 3.5 mph - 0.03 in   Overcast
5:15 AM 50.0 °F 46.4 °F 87% 30.20 in 4.0 mi NNW 5.8 mph - 0.09 in   Overcast
5:35 AM 50.0 °F 46.4 °F 87% 30.20 in 4.0 mi Calm Calm - 0.17 in Thunderstorm Overcast
5:55 AM 50.0 °F 46.4 °F 87% 30.19 in 4.0 mi North 4.6 mph - 0.22 in   Overcast
6:15 AM 50.0 °F 46.4 °F 87% 30.20 in 4.0 mi Calm Calm - 0.03 in Thunderstorm Thunderstorm
6:35 AM 50.0 °F 46.4 °F 87% 30.21 in 5.0 mi Calm Calm - 0.05 in Thunderstorm Thunderstorm
6:55 AM 50.0 °F 46.4 °F 87% 30.21 in 5.0 mi Calm Calm - 0.08 in Thunderstorm Overcast
7:15 AM 50.0 °F 46.4 °F 87% 30.21 in 3.0 mi Calm Calm - 0.05 in Thunderstorm Thunderstorm
7:35 AM 50.0 °F 46.4 °F 87% 30.22 in 5.0 mi North 3.5 mph - 0.08 in Thunderstorm Overcast
7:55 AM 50.0 °F 46.4 °F 87% 30.22 in 5.0 mi Calm Calm - 0.10 in   Overcast
8:15 AM 50.0 °F 46.4 °F 87% 30.23 in 2.0 mi Calm Calm - 0.03 in   Overcast
8:35 AM 50.0 °F 46.4 °F 87% 30.22 in 1.8 mi ENE 3.5 mph - 0.06 in   Overcast
8:55 AM 50.0 °F 46.4 °F 87% 30.24 in 2.0 mi NW 5.8 mph - 0.07 in   Overcast
9:15 AM 48.2 °F 46.4 °F 93% 30.24 in 4.0 mi North 6.9 mph - 0.01 in   Overcast
9:35 AM 48.2 °F 46.4 °F 93% 30.23 in 7.0 mi NNE 8.1 mph - 0.03 in   Overcast
9:55 AM 48.2 °F 46.4 °F 93% 30.23 in 10.0 mi ENE 3.5 mph - 0.03 in   Overcast
10:15 AM 48.2 °F 46.4 °F 93% 30.23 in 10.0 mi East 3.5 mph - N/A   Overcast
10:35 AM 48.2 °F 46.4 °F 93% 30.22 in 10.0 mi East 3.5 mph - N/A   Overcast
10:55 AM 48.2 °F 46.4 °F 93% 30.22 in 10.0 mi North 4.6 mph - N/A   Overcast
11:15 AM 50.0 °F 46.4 °F 87% 30.21 in 10.0 mi North 5.8 mph - N/A   Overcast
11:35 AM 50.0 °F 46.4 °F 87% 30.19 in 10.0 mi NNE 6.9 mph - N/A   Overcast
11:55 AM 50.0 °F 46.4 °F 87% 30.19 in 10.0 mi North 5.8 mph - N/A   Overcast
12:15 PM 50.0 °F 46.4 °F 87% 30.16 in 10.0 mi NNE 6.9 mph - N/A   Overcast
12:35 PM 50.0 °F 46.4 °F 87% 30.16 in 10.0 mi NNE 3.5 mph - N/A   Overcast
12:55 PM 50.0 °F 48.2 °F 94% 30.14 in 1.2 mi NE 5.8 mph - N/A   Overcast
1:15 PM 51.8 °F 48.2 °F 88% 30.12 in 0.5 mi ENE 5.8 mph - N/A   Overcast
1:35 PM 51.8 °F 48.2 °F 88% 30.11 in 0.2 mi East 3.5 mph - N/A   Overcast
1:55 PM 51.8 °F 48.2 °F 88% 30.09 in 0.2 mi East 5.8 mph - N/A   Overcast
2:15 PM 51.8 °F 48.2 °F 88% 30.08 in 0.5 mi East 4.6 mph - N/A   Overcast
2:35 PM 51.8 °F 50.0 °F 94% 30.08 in 0.2 mi ESE 5.8 mph - N/A   Overcast
2:55 PM 53.6 °F 50.0 °F 88% 30.07 in 0.2 mi Calm Calm - N/A   Overcast
3:15 PM 53.6 °F 51.8 °F 94% 30.07 in 0.2 mi Calm Calm - N/A   Overcast
3:35 PM 53.6 °F 51.8 °F 94% 30.06 in 0.2 mi East 3.5 mph - N/A   Overcast
3:55 PM 53.6 °F 51.8 °F 94% 30.07 in 0.2 mi East 3.5 mph - N/A   Overcast
4:15 PM 53.6 °F 51.8 °F 94% 30.07 in 0.5 mi Calm Calm - N/A   Overcast
4:35 PM 53.6 °F 51.8 °F 94% 30.07 in 1.5 mi Calm Calm - N/A   Overcast
4:55 PM 53.6 °F 51.8 °F 94% 30.06 in 2.0 mi East 3.5 mph - N/A   Overcast
5:15 PM 53.6 °F 51.8 °F 94% 30.05 in 0.8 mi SE 5.8 mph - N/A   Overcast
5:35 PM 55.4 °F 51.8 °F 88% 30.04 in 0.2 mi ESE 8.1 mph - N/A   Overcast
5:55 PM 55.4 °F 53.6 °F 94% 30.03 in 0.2 mi ESE 5.8 mph - N/A   Overcast
6:15 PM 55.4 °F 53.6 °F 94% 30.03 in 1.8 mi Calm Calm - N/A   Overcast
6:35 PM 55.4 °F 53.6 °F 94% 30.02 in 3.0 mi ESE 5.8 mph - N/A   Overcast
6:55 PM 55.4 °F 53.6 °F 94% 30.03 in 5.0 mi Calm Calm - N/A   Overcast
7:15 PM 55.4 °F 53.6 °F 94% 30.03 in 2.5 mi Calm Calm - N/A   Overcast
7:55 PM 55.4 °F 53.6 °F 94% 30.02 in 1.0 mi Calm Calm - N/A   Overcast
8:15 PM 55.4 °F 53.6 °F 94% 30.02 in 0.5 mi Calm Calm - N/A   Overcast
8:35 PM 55.4 °F 53.6 °F 94% 30.01 in 9.0 mi Calm Calm - N/A   Mostly Cloudy
8:55 PM 59.0 °F 57.2 °F 94% 30.00 in 8.0 mi SSE 3.5 mph - N/A   Overcast
9:15 PM 60.8 °F 59.0 °F 94% 29.99 in 10.0 mi SSE 5.8 mph - N/A   Overcast
9:35 PM 62.6 °F 60.8 °F 94% 29.99 in 10.0 mi SSE 6.9 mph - N/A   Overcast
9:55 PM 62.6 °F 60.8 °F 94% 29.99 in 10.0 mi South 5.8 mph - N/A   Overcast
10:15 PM 62.6 °F 59.0 °F 88% 29.98 in 8.0 mi South 6.9 mph - N/A   Overcast
10:35 PM 62.6 °F 59.0 °F 88% 29.98 in 10.0 mi South 8.1 mph - N/A   Overcast
10:55 PM 64.4 °F 59.0 °F 83% 29.98 in 10.0 mi South 9.2 mph 16.1 mph N/A   Overcast
11:15 PM 62.6 °F 60.8 °F 94% 29.96 in 10.0 mi South 8.1 mph - N/A   Overcast
11:35 PM 62.6 °F 60.8 °F 94% 29.97 in 10.0 mi West 5.8 mph - N/A   Overcast
11:55 PM 57.2 °F 53.6 °F 88% 29.96 in 7.0 mi NNW 11.5 mph - N/A   Overcast